Location: Unspecified
(0.0000°N, 0.0000°E)
Time: 04:50:31
(UTC+02:00)

Ariane H10 - Visible Passes

Search period start: 28 May 2017 00:00
Search period end: 07 June 2017 00:00
Orbit: 236 x 23720 km, 3.6° (Epoch: 26 May)

Date Brightness Start Highest point End Pass type
(mag) Time Alt. Az. Time Alt. Az. Time Alt. Az.
28 May 6.6 18:14:52 10° W 18:24:13 84° S 23:39:04 10° E visible
29 May 7.8 02:02:49 10° W 04:19:51 30° W 07:36:37 10° E visible
29 May 8.5 21:58:15 10° W 23:38:33 86° N 04:00:00 10° E visible
30 May 6.7 18:22:06 10° W 18:32:04 85° S 23:51:04 10° E visible
31 May 7.7 02:14:05 10° W 04:26:59 28° W 07:43:40 10° E visible
31 May 8.4 22:05:34 10° W 00:20:53 86° NNW 04:07:13 10° E visible
01 Jun 6.8 18:28:42 10° W 18:39:21 86° S 00:01:32 10° E visible
02 Jun 7.7 02:25:04 10° W 04:33:30 25° W 07:50:06 10° E visible
02 Jun 8.4 22:12:16 10° W 00:46:38 84° NW 04:13:46 10° E visible
03 Jun 7.0 18:34:42 10° W 18:46:00 87° S 00:10:40 10° E visible
04 Jun 7.6 02:35:48 10° W 04:39:23 23° W 07:55:55 10° E visible
04 Jun 8.3 22:18:22 10° W 01:00:14 82° NW 04:19:39 10° E visible
05 Jun 7.1 18:40:06 10° W 18:52:03 88° S 00:18:37 10° E visible
06 Jun 7.5 02:46:18 10° W 04:44:40 21° W 08:01:06 10° E visible
